Regional Weather Roundup
Issued by NWS

Home | Current Version | Previous Version | Text Only | Print | Product List | Glossary Off
Versions: 1 2 3 4 5 6 7 8 9 10 11 12 13 14 15 16 17 18 19 20 21 22 23 24 25 26 27 28 29 30 31 32 33 34 35 36 37 38 39 40 41 42 43 44 45 46 47 48 49 50

000
ASUS45 KSLC 241110
RWRUT

UTAH REGIONAL WEATHER ROUNDUP
NATIONAL WEATHER SERVICE SALT LAKE CITY UT
500 AM MDT FRI MAR 24 2017

UTZ001>011-023>025-241200-

NORTHERN UTAH

CITY           SKY/WX    TMP DP  RH WIND       PRES   REMARKS
BRIGHAM CITY     N/A     34  31  90 E5        30.19R WCI  30
HILL AFB       CLEAR     34  29  82 E10       30.17R WCI  26
LOGAN          CLEAR     35  31  85 CALM      30.17R
OGDEN          CLEAR     32  30  92 S6        30.17R WCI  26
SALT LAKE CITY PTCLDY    35  33  92 SE9       30.17R WCI  28
WENDOVER       CLEAR     37  23  56 CALM      30.17S
HEBER CITY     MOCLDY    36  30  80 SW3       30.15S

$$

UTZ011>015-024>027-241200-

CENTRAL/NORTHEAST UTAH

CITY           SKY/WX    TMP DP  RH WIND       PRES   REMARKS
PROVO AIRPORT  CLEAR     33  31  92 NE3       30.20R
MOAB/CANYONLAN CLOUDY    44  32  62 NW12      30.03R
DELTA          CLEAR     32  30  93 CALM      30.19S
PRICE          CLEAR     39  26  59 NW20G25   30.09R WCI  29
RICHFIELD      CLEAR     32  32 100 N2        30.22S
ROOSEVELT      PTCLDY    37  32  81 CALM      30.11R
VERNAL         CLOUDY    43  33  68 NW7       30.08R

$$

UTZ013>016-019>022-027-241200-

SOUTHERN UTAH

CITY           SKY/WX    TMP DP  RH WIND       PRES   REMARKS
BRYCE CANYON   PTCLDY    29  22  75 NW16      30.15R WCI  17
CEDAR CITY     PTCLDY    26  24  92 CALM      30.17R
MILFORD        CLEAR    N/A N/A N/A W8        30.18F
ST GEORGE      MOSUNNY   41  36  82 CALM      30.17S
HANKSVILLE     CLEAR     43  28  56 NW8       30.09R
KANAB          CLEAR     32  28  86 CALM      30.22R
BLANDING       PTCLDY    42  27  56 NW23G30   30.06S

$$

REGIONAL REPORTS     COLORADO/ARIZONA

CITY           SKY/WX    TMP DP  RH WIND       PRES   REMARKS
CRAIG, CO      CLOUDY    37  29  72 N16       30.03R WCI  28
GRAND JUNCTION CLOUDY    40  34  79 NW14      30.00R WCI  32
RIFLE, CO      LGT RAIN  42  33  70 NW14G22   30.02R
MONTROSE, CO   CLOUDY    42  33  70 NW20G28   29.98R
CORTEZ, CO     CLOUDY    39  31  72 NW17G29   29.94S WCI  30
COLORADO CITY    N/A     32  32 100 CALM      30.20R
PAGE, AZ       CLEAR     48  32  53 W10G21    30.09R
GRAND CANYON   CLEAR     26  26 100 CALM      30.15F
KINGMAN, AZ    CLEAR     37  31  78 CALM      30.15S
FLAGSTAFF, AZ  CLEAR     32  25  75 VRB6      30.14R WCI  26

$$

REGIONAL REPORTS    NEVADA/IDAHO/WYOMING

CITY           SKY/WX    TMP DP  RH WIND       PRES   REMARKS
LAS VEGAS, NV  CLEAR     53  32  44 S3        30.14R
ELY, NY        PTCLDY    26  21  81 S8        30.20R WCI  18
ELKO, NV       PTCLDY    32  26  78 CALM      30.15R
POCATELLO, ID  CLEAR     35  25  66 S5        30.14R WCI  31
BURLEY, ID     CLEAR     34  25  69 SE3       30.11S
FORT BRIDGER,    N/A     33  32  96 W12       30.17  WCI  24
EVANSTON, WY   CLOUDY    29  23  78 SW3       30.15S
ROCK SPRINGS,  CLOUDY    36  30  79 N5        30.12R WCI  32
KEMMERER, WY     N/A     30  23  74 W9        30.14R WCI  22

$$



USA.gov is the U.S. government's official web portal to all federal, state and local government web resources and services.